{"data":{"norad_id":37193,"epoch":"2026-05-25T05:28:58.810080Z","epoch_age_seconds":65983,"freshness":"FRESH","line1":"1 37193U 10054F   26145.22845845 -.00000094  00000+0  57127-4 0  9998","line2":"2 37193  52.0034 134.1779 0000395 358.0086  14.9684 12.62267119721030","mean_motion":12.62267119,"eccentricity":3.95e-5,"inclination_deg":52.0034,"raan_deg":134.1779,"arg_perigee_deg":358.0086,"mean_anomaly_deg":14.9684,"bstar":5.7127e-5,"rev_number":72103,"period_min":114.08044924285,"perigee_km":1413.2930041032,"apogee_km":1413.9085513877,"semimajor_km":7791.7377777454,"source":"CELESTRAK","updated_at":"2026-05-25T13:38:23.041474Z"}}